Location: Unspecified
(0.0000°N, 0.0000°E)
Time: 12:03:53
(UTC+00:00)

Courier 1B Rocket - Pass Details

Date: 18 December 2018
Orbit: 920 x 1202 km, 28.2° (Epoch: 15 July)

Event Time Altitude Azimuth Distance (km) Brightness Sun altitude
Rises 12:42:47 0° 329° (NNW) 3,839 8.0 64.1°
Reaches altitude 10° 12:47:07 10° 353° (N) 2,950 7.4 63.6°
Maximum altitude 12:50:41 14° 23° (NNE) 2,703 7.2 63.2°
Drops below altitude 10° 12:54:21 10° 53° (NE) 3,045 7.4 62.7°
Sets 12:58:56 0° 76° (ENE) 4,052 8.0 62.1°
